TimeEDT,TemperatureF,Dew PointF,Humidity,Sea Level PressureIn,VisibilityMPH,Wind Direction,Wind SpeedMPH,Gust SpeedMPH,PrecipitationIn,Events,Conditions,WindDirDegrees,DateUTC
12:16 AM,66.2,62.6,88,29.75,10.0,WSW,6.9,-,N/A,,Overcast,250,2013-10-07 04:16:00
12:36 AM,62.6,59.0,88,29.75,10.0,WNW,17.3,25.3,N/A,,Overcast,290,2013-10-07 04:36:00
12:51 AM,60.1,53.1,78,29.73,10.0,WNW,13.8,23.0,0.00,Rain,Light Rain,290,2013-10-07 04:51:00
1:16 AM,59.0,53.6,82,29.74,10.0,West,5.8,-,0.00,Rain,Light Rain,280,2013-10-07 05:16:00
1:51 AM,57.0,53.1,87,29.74,10.0,WSW,10.4,-,0.03,Rain,Light Rain,250,2013-10-07 05:51:00
2:18 AM,55.4,53.6,94,29.76,10.0,WSW,8.1,19.6,0.00,Rain,Light Rain,250,2013-10-07 06:18:00
2:51 AM,55.0,54.0,96,29.73,7.0,West,6.9,-,0.01,Rain,Light Rain,270,2013-10-07 06:51:00
3:51 AM,54.0,53.1,97,29.77,4.0,WSW,17.3,24.2,0.15,Rain,Light Rain,240,2013-10-07 07:51:00
4:51 AM,53.1,52.0,96,29.74,3.0,SSW,5.8,-,0.15,Rain,Light Rain,210,2013-10-07 08:51:00
5:51 AM,53.1,51.1,93,29.77,4.0,SW,11.5,-,0.16,Rain,Light Rain,220,2013-10-07 09:51:00
6:51 AM,53.1,51.1,93,29.78,10.0,SW,8.1,-,0.07,Rain,Light Rain,220,2013-10-07 10:51:00
7:37 AM,51.8,48.2,88,29.80,10.0,WSW,15.0,19.6,0.01,Rain,Light Rain,250,2013-10-07 11:37:00
7:51 AM,51.1,48.0,89,29.79,6.0,West,13.8,-,0.01,Rain,Light Rain,260,2013-10-07 11:51:00
8:39 AM,48.2,42.8,82,29.83,10.0,West,12.7,-,0.00,,Mostly Cloudy,260,2013-10-07 12:39:00
8:51 AM,48.0,43.0,83,29.83,10.0,West,10.4,18.4,0.00,,Mostly Cloudy,260,2013-10-07 12:51:00
9:51 AM,50.0,43.0,77,29.85,10.0,WSW,10.4,-,N/A,,Mostly Cloudy,240,2013-10-07 13:51:00
10:42 AM,51.8,42.8,71,29.85,10.0,West,16.1,25.3,N/A,,Mostly Cloudy,260,2013-10-07 14:42:00
10:51 AM,52.0,42.1,69,29.85,10.0,WSW,18.4,25.3,N/A,,Mostly Cloudy,240,2013-10-07 14:51:00
11:51 AM,52.0,41.0,66,29.88,10.0,West,15.0,21.9,N/A,,Overcast,260,2013-10-07 15:51:00
12:29 PM,51.8,41.0,67,29.89,10.0,WSW,10.4,-,N/A,,Overcast,250,2013-10-07 16:29:00
12:51 PM,54.0,43.0,66,29.88,10.0,WSW,13.8,-,N/A,,Overcast,240,2013-10-07 16:51:00
1:18 PM,53.6,42.8,67,29.87,10.0,West,13.8,-,N/A,,Overcast,260,2013-10-07 17:18:00
1:51 PM,53.1,42.1,66,29.88,10.0,WSW,17.3,27.6,N/A,,Overcast,250,2013-10-07 17:51:00
2:51 PM,53.1,42.1,66,29.90,10.0,West,16.1,27.6,N/A,,Overcast,260,2013-10-07 18:51:00
3:51 PM,55.0,42.1,62,29.92,10.0,WSW,17.3,24.2,N/A,,Mostly Cloudy,240,2013-10-07 19:51:00
4:51 PM,55.9,42.1,60,29.94,10.0,WSW,15.0,-,N/A,,Scattered Clouds,250,2013-10-07 20:51:00
5:51 PM,55.0,43.0,64,29.96,10.0,SW,11.5,-,N/A,,Mostly Cloudy,230,2013-10-07 21:51:00
6:51 PM,54.0,44.1,69,29.99,10.0,SW,6.9,-,N/A,,Overcast,220,2013-10-07 22:51:00
7:51 PM,54.0,44.1,69,30.02,10.0,SSW,6.9,-,N/A,,Overcast,210,2013-10-07 23:51:00
8:51 PM,54.0,44.1,69,30.05,10.0,SW,8.1,-,N/A,,Overcast,230,2013-10-08 00:51:00
9:51 PM,54.0,44.1,69,30.08,10.0,WSW,8.1,-,0.00,,Overcast,240,2013-10-08 01:51:00
10:51 PM,54.0,45.0,72,30.11,10.0,WSW,6.9,-,N/A,,Overcast,250,2013-10-08 02:51:00
11:51 PM,51.1,44.1,77,30.13,10.0,WSW,6.9,-,N/A,,Scattered Clouds,250,2013-10-08 03:51:00